Regional Weather Roundup
Issued by NWS

Home | Current Version | Previous Version | Text Only | Print | Product List | Glossary Off
Versions: 1 2 3 4 5 6 7 8 9 10 11 12 13 14 15 16 17 18 19 20 21 22 23 24 25 26 27 28 29 30 31 32 33 34 35 36 37 38 39 40 41 42 43 44 45 46 47 48 49 50

000
ASUS43 KMKX 211610
RWRWI

WISCONSIN REGIONAL WEATHER ROUNDUP
NATIONAL WEATHER SERVICE MILWAUKEE/SULLIVAN WI
1100 AM CDT SAT APR 21 2018

NOTE: "FAIR" INDICATES FEW OR NO CLOUDS BELOW 12,000 FEET WITH NO
SIGNIFICANT WEATHER AND/OR OBSTRUCTIONS TO VISIBILITY.

WIZ001-002-006>008-014>016-023>028-211700-
NORTHWEST WISCONSIN

CITY           SKY/WX    TMP DP  RH WIND       PRES   REMARKS
SUPERIOR ARPT  FAIR      53  24  32 S5        30.40F
ASHLAND        FAIR      53  16  23 VRB3      30.40F
HAYWARD        FAIR      50  20  30 VRB3      30.41F
SIREN          FAIR      52  19  27 S3        30.42S
CUMBERLAND     FAIR      43  23  45 CALM      30.42S
RICE LAKE      FAIR      47  21  35 CALM      30.43F
CHETEK         FAIR      49  20  31 CALM      30.42S
LADYSMITH      FAIR      51  21  31 CALM      30.43F
EAU CLAIRE     FAIR      50  25  37 CALM      30.42S
MENOMONIE      FAIR      49  28  44 E3        30.43S
NEW RICHMOND   FAIR      51  23  34 CALM      30.43S
OSCEOLA        FAIR      50  24  36 S3        30.45S
$$

WIZ003>005-009-010-017-018-211700-
NORTH CENTRAL WISCONSIN

CITY           SKY/WX    TMP DP  RH WIND       PRES   REMARKS
MANITOWISH WTR FAIR      50  15  25 CALM      30.39F
ARBOR VITAE    FAIR      52  14  21 S3        30.40S
WOODRUFF       FAIR      52  14  21 S3        30.40S
RHINELANDER    FAIR      49  19  30 W6        30.41S
EAGLE RIVER    FAIR      51  13  21 SW3       30.39F
LAND O LAKES   FAIR      53  13  20 NE3       30.40F
PHILLIPS       FAIR      50  19  29 CALM      30.41S
TOMAHAWK       FAIR      50  18  27 CALM      30.41F
MEDFORD        FAIR      45  23  42 S7        30.41F
MERRILL          N/A     51  20  29 S5        30.43S
$$

WIZ029-030-035-036-043>047-211700-
CENTRAL WISCONSIN

CITY           SKY/WX    TMP DP  RH WIND       PRES   REMARKS
WAUSAU         FAIR      50  19  29 CALM      30.41F
MOSINEE        MOSUNNY   48  18  29 CALM      30.43F
MARSHFIELD     FAIR      48  19  31 E3        30.41F
STEVENS POINT  FAIR      48  17  30 CALM      30.43F
WAUPACA        FAIR      50  19  29 CALM      30.44F
WAUTOMA        FAIR      49  21  33 SW6       30.45F
WISC RAPIDS    FAIR      48  19  31 SW7       30.44S
CAMP DOUGLAS   CLOUDY    46  27  46 CALM      30.43R
$$

WIZ011>013-019>022-031-037>040-048>050-211700-
NORTHEAST WISCONSIN

CITY           SKY/WX    TMP DP  RH WIND       PRES   REMARKS
ANTIGO         FAIR      49  24  37 CALM      30.42S
SHAWANO        FAIR      53  17  23 S3        30.43F
OCONTO         FAIR      51  20  28 NW3       30.43F
STURGEON BAY   FAIR      52  18  26 W6        30.44S
GREEN BAY      FAIR      45  24  43 SW6       30.45S
MANITOWOC      FAIR      50  18  28 CALM      30.46F
APPLETON       PTSUNNY   46  18  31 SW6       30.44S
CLINTONVILLE   FAIR      49  21  33 CALM      30.44S
OSHKOSH        FAIR      44  24  45 S3        30.45S
$$

WIZ032>034-041-042-053>061-211700-
SOUTHWEST WISCONSIN

CITY           SKY/WX    TMP DP  RH WIND       PRES   REMARKS
LA CROSSE      FAIR      47  32  56 CALM      30.43F
SPARTA         FAIR      49  29  46 S3        30.44S
VIROQUA        FAIR      50  26  39 SW12      30.43S
BOSCOBEL       CLOUDY    49  33  54 SW7       30.46R
PRAIRIE DU CHI LGT RAIN  47  37  70 NE3       30.45F
PLATTEVILLE    CLOUDY    46  38  73 E7        30.46S
$$

WIZ056-057-062-063-064-067-068-211700-
SOUTH CENTRAL WISCONSIN

CITY           SKY/WX    TMP DP  RH WIND       PRES   REMARKS
REEDSBURG      FAIR      46  26  47 S3        30.44S
BARABOO/DELLS  FAIR      47  23  38 CALM      30.44S
LONE ROCK      CLOUDY    49  32  52 CALM      30.45R
MINERAL POINT  FAIR      50  30  46 S10       30.45F
MADISON        CLOUDY    48  27  44 S3        30.45S
MIDDLETON      FAIR      52  31  44 SW9       30.45S
WATERTOWN      FAIR      44  20  38 CALM      30.46S
MONROE         PTSUNNY   45  30  57 SW17      30.46S
JANESVILLE     CLOUDY    50  21  32 S13       30.45F
$$

WIZ051-052-058>065-066-070>072-211700-
SOUTHEAST WISCONSIN

CITY           SKY/WX    TMP DP  RH WIND       PRES   REMARKS
MILWAUKEE      CLOUDY    48  21  34 CALM      30.46F
WAUKESHA       MOSUNNY   43  21  42 CALM      30.47S
MILWAUKEE/TIMM CLOUDY    45  21  39 CALM      30.47F
RACINE         FAIR      48  18  30 CALM      30.48S
BURLINGTON     FAIR      45  26  46 CALM      30.45F
KENOSHA        FAIR      48  24  39 SE3       30.46F
FOND DU LAC    FAIR      46  15  28 S5        30.45F
SHEBOYGAN      FAIR      50  24  36 S5        30.45F
WEST BEND      FAIR      46  18  31 CALM      30.45F
JUNEAU         FAIR      43  20  39 CALM      30.47S
$$

LSZ147-162-211700-
LAKE SUPERIOR

STATION/POSITION TIME  TEMP    WIND        PRES    WAVE
                       AIR SEA DIR/SP/G            HT/PER
                 (UTC) (F)     (DEG/KT/KT) (MB)    (FT/S)
DEVILS ISLAND    1600   39     240/  8/ 10 1030.4F
SAXON HARBOR     1540   42      10/  2/  3 1029.1S
$$

LMZ867-665-643>646-211700-
LAKE MICHIGAN

STATION/POSITION TIME  TEMP    WIND        PRES    WAVE
                       AIR SEA DIR/SP/G            HT/PER
                 (UTC) (F)     (DEG/KT/KT) (MB)    (FT/S)
NORTHPORT PIER   1540   39                 1030.1S
KEWAUNEE LAKESHO 1542   42     170/  3/  5 1030.2R
SHEBOYGAN LAKESH 1600   41     160/  7/  7 1031.8F
PORT WASHINGTON  1530   44      CALM  /  3 1032.5S
MILWAUKEE LAKESH 1550   40      60/  2/  2   N/A
KENOSHA   LAKESH 1600   42                 1031.5
$$

TC  - TEMPERATURE IN CELSIUS
VSB - VISIBILITY IN STATUTE MILES
WCI - WIND CHILL INDEX
HX  - HEAT INDEX





USA.gov is the U.S. government's official web portal to all federal, state and local government web resources and services.